Date String (YYYY-MM-DD hh:mm:ss) UTC,Instrument flags,absolute air pressure of the measurement (hPa),sample flow rate (lpm),inlet stack bypass flow (lpm),air temperature of the measurement (°C),ambient temperature measured by the external sensor (°C),aerosol sample conditioner tube jacket temperature (°C),OPC LED temperature (°C),internal box temperature (°C),relative humidity of the measurement (%),span deviation,mass concentration of particles derived from Lorenz-Mie calculation of OPC scattering (μg/m³),mass concentration of particles derived from Lorenz-Mie calculation of OPC scattering (μg/m³),mass concentration of particles derived from Lorenz-Mie calculation of OPC scattering (μg/m³)
DateTimeUTC,F1_M11,P_M11,Q1_M11,Q2_M11,T1_M11,T2_M11,T3_M11,T4_M11,T5_M11,U1_M11,ZSPAN_M11,X2_M11,X0_M11,X1_M11
2024-01-20 10:00:00,SystemResetWarning,0829.8,5.00,000.00,018.7,017.8,000.0,027.3,020.0,11.8,0000.0,0007.17,0012.01,0006.51
2024-01-20 10:01:00,SystemResetWarning,0829.8,5.01,000.00,018.7,017.8,000.0,027.2,020.0,11.9,0000.0,0007.34,0012.56,0006.66
2024-01-20 10:02:00,SystemResetWarning,0829.8,5.01,000.00,018.8,018.1,000.0,027.2,020.4,11.8,0000.7,0007.46,0012.50,0006.78
2024-01-20 10:03:00,SystemResetWarning,0829.9,5.00,000.00,018.9,018.8,000.0,027.2,020.8,11.6,0002.2,0007.53,0012.58,0006.86
2024-01-20 10:04:00,SystemResetWarning,0829.9,5.00,000.00,019.0,019.1,000.0,027.2,020.7,11.5,0001.7,0007.68,0012.83,0006.96
2024-01-20 10:05:00,SystemResetWarning,0829.8,4.99,000.00,019.0,019.0,000.0,027.2,020.4,11.5,0002.6,0007.87,0012.97,0007.11
2024-01-20 10:06:00,SystemResetWarning,0829.8,4.99,000.00,019.0,018.8,000.0,027.2,020.3,11.5,0002.5,0007.99,0013.48,0007.24
2024-01-20 10:07:00,SystemResetWarning,0829.7,5.00,000.00,019.0,018.7,000.0,027.2,020.2,11.5,0002.4,0008.16,0014.07,0007.38
2024-01-20 10:08:00,SystemResetWarning,0829.7,5.00,000.00,019.0,018.6,000.0,027.2,020.2,11.5,0002.1,0008.40,0014.48,0007.59
2024-01-20 10:09:00,SystemResetWarning,0829.7,5.00,000.00,018.9,018.5,000.0,027.2,020.1,11.5,0001.7,0008.59,0014.71,0007.75
2024-01-20 10:10:00,SystemResetWarning,0829.7,5.01,000.00,018.9,018.4,000.0,027.2,020.1,11.5,0001.2,0008.69,0015.10,0007.84
2024-01-20 10:11:00,SystemResetWarning,0829.7,5.00,000.00,018.9,018.4,000.0,027.2,020.0,11.5,0001.6,0008.77,0015.01,0007.92
2024-01-20 10:12:00,SystemResetWarning,0829.6,5.00,000.00,018.8,018.3,000.0,027.2,020.0,11.6,0001.8,0008.90,0014.90,0008.03
2024-01-20 10:13:00,SystemResetWarning,0829.7,5.00,000.00,018.8,018.2,000.0,027.2,020.0,11.6,0002.2,0008.99,0015.06,0008.13
2024-01-20 10:14:00,SystemResetWarning,0829.7,4.99,000.00,018.8,018.2,000.0,027.2,020.0,11.6,0001.7,0009.08,0015.05,0008.24
2024-01-20 10:15:00,SystemResetWarning,0829.7,4.99,000.00,018.8,018.2,000.0,027.2,020.0,11.6,0001.0,0009.10,0014.85,0008.27
2024-01-20 10:16:00,SystemResetWarning,0829.7,5.00,000.00,018.8,018.1,000.0,027.2,020.0,11.6,0001.0,0009.00,0015.97,0008.20
2024-01-20 10:17:00,SystemResetWarning,0829.6,5.00,000.00,018.8,018.1,000.0,027.2,020.0,11.6,0001.2,0008.93,0016.59,0008.11
2024-01-20 10:18:00,SystemResetWarning,0829.6,5.01,000.00,018.8,018.1,000.0,027.2,020.0,11.5,0001.1,0008.76,0015.88,0007.96
2024-01-20 10:19:00,SystemResetWarning,0829.6,5.00,000.00,018.8,018.0,000.0,027.2,020.0,11.5,0000.9,0008.61,0015.62,0007.82
2024-01-20 10:20:00,SystemResetWarning,0829.6,5.00,000.00,018.8,018.0,000.0,027.2,020.0,11.6,0001.1,0008.50,0016.07,0007.72
2024-01-20 10:21:00,SystemResetWarning,0829.7,4.99,000.00,018.8,018.0,000.0,027.2,020.0,11.5,0001.8,0008.48,0015.76,0007.73
2024-01-20 10:22:00,SystemResetWarning,0829.7,5.00,000.00,018.7,018.0,000.0,027.2,020.0,11.5,0001.6,0008.47,0016.19,0007.74
2024-01-20 10:23:00,SystemResetWarning,0829.7,4.99,000.00,018.8,017.9,000.0,027.2,020.0,11.5,0002.0,0008.33,0016.36,0007.63
2024-01-20 10:24:00,SystemResetWarning,0829.7,5.00,000.00,018.7,017.9,000.0,027.2,020.0,11.5,0001.6,0008.13,0016.06,0007.44
2024-01-20 10:25:00,SystemResetWarning,0829.7,5.00,000.00,018.7,017.9,000.0,027.2,020.0,11.5,0001.8,0007.96,0015.74,0007.26
2024-01-20 10:26:00,SystemResetWarning,0829.6,5.00,000.00,018.7,017.9,000.0,027.2,020.0,11.5,0001.5,0007.91,0015.75,0007.19
2024-01-20 10:27:00,SystemResetWarning,0829.6,5.00,000.00,018.7,017.9,000.0,027.2,020.0,11.6,0000.0,0007.88,0014.58,0007.16
2024-01-20 10:28:00,SystemResetWarning,0829.6,5.00,000.00,018.7,017.8,000.0,027.2,020.0,11.6,0000.0,0007.82,0013.54,0007.12
2024-01-20 10:29:00,SystemResetWarning,0829.6,5.00,000.00,018.7,017.8,000.0,027.2,020.0,11.6,0000.0,0007.86,0013.59,0007.15
2024-01-20 10:30:00,SystemResetWarning,0829.6,5.00,000.00,018.7,017.8,000.0,027.2,020.0,11.6,0000.0,0007.91,0013.68,0007.18
2024-01-20 10:31:00,SystemResetWarning,0829.6,4.99,000.00,018.7,017.8,000.0,027.2,020.0,11.7,0000.0,0007.87,0013.27,0007.15
2024-01-20 10:32:00,SystemResetWarning,0829.6,4.99,000.00,018.7,017.8,000.0,027.2,020.1,11.7,0000.0,0007.71,0012.95,0007.03
2024-01-20 10:33:00,SystemResetWarning,0829.6,5.00,000.00,018.8,018.2,000.0,027.2,020.5,11.6,0000.0,0007.57,0012.46,0006.91
2024-01-20 10:34:00,SystemResetWarning,0829.7,5.01,000.00,018.9,018.9,000.0,027.2,020.9,11.6,0000.0,0007.51,0011.82,0006.83
2024-01-20 10:35:00,SystemResetWarning,0829.7,5.00,000.00,019.0,019.1,000.0,027.2,020.7,11.5,0000.0,0007.52,0011.71,0006.83
2024-01-20 10:36:00,SystemResetWarning,0829.6,4.98,000.00,019.0,019.0,000.0,027.2,020.5,11.5,0000.0,0007.51,0011.78,0006.84
2024-01-20 10:37:00,SystemResetWarning,0829.5,5.00,000.00,019.0,018.9,000.0,027.2,020.4,11.5,0000.0,0007.43,0012.19,0006.83
2024-01-20 10:38:00,SystemResetWarning,0829.5,5.01,000.00,019.0,018.7,000.0,027.2,020.3,11.5,0000.0,0007.34,0012.23,0006.77
2024-01-20 10:39:00,SystemResetWarning,0829.5,5.01,000.00,019.0,018.6,000.0,027.2,020.2,11.5,0000.0,0007.25,0012.01,0006.71
2024-01-20 10:40:00,SystemResetWarning,0829.4,5.00,000.00,019.0,018.6,000.0,027.2,020.2,11.5,0000.0,0007.18,0012.01,0006.67
2024-01-20 10:41:00,SystemResetWarning,0829.4,5.00,000.00,018.9,018.5,000.0,027.2,020.1,11.6,0000.0,0007.16,0012.57,0006.69
2024-01-20 10:42:00,SystemResetWarning,0829.3,5.00,000.00,018.9,018.4,000.0,027.2,020.1,11.6,0000.0,0007.17,0012.63,0006.66
2024-01-20 10:43:00,SystemResetWarning,0829.3,5.00,000.00,018.9,018.3,000.0,027.2,020.0,11.7,0000.0,0007.14,0012.36,0006.62
2024-01-20 10:44:00,SystemResetWarning,0829.4,5.00,000.00,018.8,018.3,000.0,027.2,020.0,11.7,0000.0,0007.10,0013.16,0006.55
2024-01-20 10:45:00,SystemResetWarning,0829.3,5.00,000.00,018.8,018.2,000.0,027.2,020.0,11.7,0000.0,0007.04,0013.64,0006.48
2024-01-20 10:46:00,SystemResetWarning,0829.4,4.99,000.00,018.8,018.2,000.0,027.2,020.0,11.7,0000.0,0007.00,0014.20,0006.46
2024-01-20 10:47:00,SystemResetWarning,0829.4,5.00,000.00,018.8,018.2,000.0,027.2,020.0,11.8,0000.0,0007.00,0014.42,0006.47
2024-01-20 10:48:00,SystemResetWarning,0829.4,5.00,000.00,018.8,018.1,000.0,027.2,020.0,11.9,0000.0,0007.10,0014.79,0006.55
2024-01-20 10:49:00,SystemResetWarning,0829.4,5.00,000.00,018.8,018.1,000.0,027.2,020.0,11.9,0000.0,0007.20,0015.04,0006.63
2024-01-20 10:50:00,SystemResetWarning,0829.3,4.99,000.00,018.8,018.1,000.0,027.2,020.0,11.9,0000.0,0007.29,0015.77,0006.73
2024-01-20 10:51:00,SystemResetWarning,0829.4,5.01,000.00,018.8,018.0,000.0,027.2,020.0,11.9,0000.0,0007.45,0016.68,0006.84
2024-01-20 10:52:00,SystemResetWarning,0829.4,5.00,000.00,018.8,018.0,000.0,027.2,020.0,11.9,0000.2,0007.51,0016.11,0006.89
2024-01-20 10:53:00,SystemResetWarning,0829.4,5.01,000.00,018.8,018.0,000.0,027.2,020.0,11.8,0000.6,0007.58,0016.12,0006.96
2024-01-20 10:54:00,SystemResetWarning,0829.4,5.01,000.00,018.8,018.0,000.0,027.2,020.0,11.8,0000.7,0007.66,0016.14,0007.05
2024-01-20 10:55:00,SystemResetWarning,0829.4,5.00,000.00,018.8,018.0,000.0,027.2,020.0,11.8,0000.3,0007.69,0016.48,0007.13
2024-01-20 10:56:00,SystemResetWarning,0829.4,4.99,000.00,018.8,017.9,000.0,027.2,020.0,11.7,0000.2,0007.77,0015.94,0007.22
2024-01-20 10:57:00,SystemResetWarning,0829.3,5.00,000.00,018.7,017.9,000.0,027.2,020.0,11.8,0000.2,0007.82,0015.51,0007.29
2024-01-20 10:58:00,SystemResetWarning,0829.4,5.00,000.00,018.7,017.9,000.0,027.2,020.0,11.8,0000.8,0007.87,0015.06,0007.35
2024-01-20 10:59:00,SystemResetWarning,0829.4,4.99,000.00,018.7,017.9,000.0,027.2,020.0,11.7,0000.0,0007.88,0014.54,0007.35
